This demonstration page uses our WeatherBlox Daily Observations layout. Learn more.

Left ArrowRight Arrow

38.20091, -84.87328

Hourly Observations for July 2, 2019

Temp ( °F °C ) Dew Point ( °F °C ) Humidity (%) Winds ( mph kmh ) Pressure ( in mb ) Visibility ( mi km ) Precip ( " mm )
12:53 am 00:53 Clear 75 23.9 68 20 79 79 Calm 29.99 1016 10 16 0.00 0.00
1:53 am 01:53 Clear 74 23.3 69 20.6 85 85 Calm 29.98 1015 10 16 0.00 0.00
2:53 am 02:53 Clear 74 23.3 69 20.6 85 85 Calm 29.97 1015 10 16 0.00 0.00
3:53 am 03:53 Clear 72 22.2 68 20 87 87 SW 3 6 29.97 1015 10 16 0.00 0.00
4:53 am 04:53 Partly Cloudy 73 22.8 69 20.6 87 87 Calm 29.97 1015 10 16 0.00 0.00
5:53 am 05:53 Clear 72 22.2 69 20.6 91 91 Calm 29.97 1015 10 16 0.00 0.00
6:53 am 06:53 Sunny 71 21.7 68 20 90 90 Calm 29.98 1015 10 16 0.00 0.00
7:53 am 07:53 Sunny 75 23.9 71 21.7 88 88 SW 6 9 29.99 1016 10 16 0.00 0.00
8:53 am 08:53 Sunny 80 26.7 73 22.8 79 79 SW 3 6 30.00 1016 10 16 0.00 0.00
9:53 am 09:53 Sunny 84 28.9 73 22.8 70 70 W 6 9 30.00 1016 10 16 0.00 0.00
10:53 am 10:53 Sunny 87 30.6 72 22.2 61 61 VRB 5 7 29.99 1016 10 16 0.00 0.00
11:53 am 11:53 Mostly Sunny 88 31.1 72 22.2 59 59 W 8 13 29.99 1016 10 16 0.00 0.00
12:53 pm 12:53 Mostly Sunny 89 31.7 72 22.2 57 57 VRB 7 11 29.98 1015 10 16 0.00 0.00
2:53 pm 14:53 Sunny 91 32.8 71 21.7 52 52 WSW 8 13 29.94 1014 10 16 0.00 0.00
3:53 pm 15:53 Sunny 90 32.2 73 22.8 58 58 WSW 7 11 29.93 1014 10 16 0.00 0.00
4:53 pm 16:53 Sunny with Nearby Thunderstorms 88 31.1 72 22.2 59 59 WSW 5 7 29.91 1013 10 16 0.00 0.00
5:24 pm 17:24 Sunny 88 31.1 72 22.2 59 59 W 8 13 29.90 1013 10 16 0.00 0.00
5:31 pm 17:31 Sunny with Nearby Thunderstorms 87 30.6 72 22.2 61 61 W 7 11 29.90 1013 10 16 0.00 0.00
5:53 pm 17:53 Sunny with Nearby Thunderstorms 87 30.6 73 22.8 63 63 VRB 3 6 29.92 1013 10 16 0.00 0.00
6:33 pm 18:33 Sunny 86 30 72 22.2 63 63 WNW 5 7 29.88 1012 10 16 0.00 0.00
6:53 pm 18:53 Sunny 87 30.6 72 22.2 61 61 WNW 5 7 29.89 1012 10 16 0.00 0.00
7:53 pm 19:53 Sunny 84 28.9 71 21.7 65 65 SSW 5 7 29.90 1012 10 16 0.00 0.00
8:53 pm 20:53 Sunny 81 27.2 71 21.7 72 72 SSW 6 9 29.90 1013 10 16 0.00 0.00
9:53 pm 21:53 Partly Cloudy 77 25 67 19.4 71 71 W 7 11 29.93 1014 10 16 0.00 0.00
10:12 pm 22:12 Mostly Cloudy with Nearby Thunderstorms 79 26.1 68 20 69 69 W 12 19 29.94 1014 10 16 0.00 0.00
10:19 pm 22:19 Mostly Cloudy with Thunderstorms 79 26.1 67 19.4 67 67 WSW 13 20 29.95 1014 10 16 0.00 0.00
10:40 pm 22:40 Cloudy with Thunderstorms 72 22.2 68 20 87 87 WSW 9 15 29.96 1015 3 4 0.18 4.57
10:48 pm 22:48 Cloudy with Thunderstorms 72 22 68 20 88 88 W 10 17 29.96 1014 5 8 0.21 5.33
10:53 pm 22:53 Cloudy with Thunderstorms 72 22.2 68 20 87 87 W 12 19 29.95 1014 7 11 0.21 5.33
11:05 pm 23:05 Mostly Cloudy with Nearby Thunderstorms 72 22.2 68 20 87 87 NW 9 15 29.95 1014 10 16 0.01 0.25
11:13 pm 23:13 Mostly Cloudy with Thunderstorms 72 22.2 68 20 87 87 NW 6 9 29.95 1014 10 16 0.01 0.25
11:43 pm 23:43 Partly Cloudy with Light Rain 72 22.2 68 20 87 87 SSE 7 11 29.93 1014 10 16 0.03 0.76
11:53 pm 23:53 Partly Cloudy with Light Rain 72 22.2 69 20.6 91 91 SE 6 9 29.93 1014 10 16 0.04 1.02

Powered by AerisWeather